• In Belgium
  • List of Countries
  • For 7 days
  • Water Temperature
  • Satellite Maps
  • Weather Map
  • Weather Widgets
  • user-avatar
    Login

    Hourly Weather Kranevo

    Today, 20 October, Saturday

    Time Temperature Precipitation Wind Pressure Humidity
    00:00 +16°C° 0 mm 1 mps 758 mmHg 83%
    01:00 +16°C° 0 mm 1 mps 758 mmHg 83%
    02:00 +16°C° 0 mm 1 mps 758 mmHg 82%
    03:00 +16°C° 0 mm 2 mps 758 mmHg 82%
    04:00 +15°C° 0 mm 2 mps 758 mmHg 82%
    05:00 +15°C° 0 mm 2 mps 758 mmHg 81%
    06:00 +14°C° 0 mm 3 mps 758 mmHg 78%
    07:00 +16°C° 0 mm 3 mps 758 mmHg 75%
    08:00 +16°C° 0 mm 3 mps 758 mmHg 70%
    09:00 +18°C° 0 mm 4 mps 759 mmHg 63%
    10:00 +19°C° 0 mm 4 mps 759 mmHg 57%
    11:00 +20°C° 0 mm 4 mps 759 mmHg 50%
    12:00 +21°C° 0 mm 4 mps 759 mmHg 48%
    13:00 +21°C° 0 mm 4 mps 758 mmHg 45%
    14:00 +22°C° 0 mm 4 mps 758 mmHg 43%
    15:00 +21°C° 0 mm 3 mps 758 mmHg 46%
    16:00 +20°C° 0 mm 3 mps 758 mmHg 48%
    17:00 +19°C° 0 mm 2 mps 758 mmHg 51%
    18:00 +19°C° 0 mm 2 mps 758 mmHg 54%
    19:00 +18°C° 0 mm 2 mps 758 mmHg 57%
    20:00 +17°C° 0 mm 2 mps 758 mmHg 60%
    21:00 +17°C° 0 mm 3 mps 758 mmHg 64%
    22:00 +16°C° 0 mm 3 mps 758 mmHg 67%
    23:00 +15°C° 0 mm 4 mps 758 mmHg 70%

    Tomorrow, 21 October, Sunday

    Time Temperature Precipitation Wind Pressure Humidity
    00:00 +14°C° 0 mm 4 mps 758 mmHg 73%
    01:00 +14°C° 0 mm 4 mps 758 mmHg 76%
    02:00 +14°C° 0 mm 5 mps 758 mmHg 78%
    03:00 +13°C° 0 mm 4 mps 758 mmHg 80%
    04:00 +13°C° 0 mm 4 mps 757 mmHg 81%
    05:00 +13°C° 0 mm 4 mps 757 mmHg 82%
    06:00 +13°C° 0 mm 4 mps 758 mmHg 81%
    07:00 +14°C° 0 mm 4 mps 758 mmHg 80%
    08:00 +14°C° 0 mm 4 mps 758 mmHg 78%
    09:00 +15°C° 0 mm 4 mps 758 mmHg 71%
    10:00 +18°C° 0 mm 4 mps 758 mmHg 64%
    11:00 +20°C° 0 mm 4 mps 758 mmHg 57%
    12:00 +20°C° 0.1 mm 4 mps 758 mmHg 55%
    13:00 +21°C° 0.1 mm 4 mps 758 mmHg 53%
    14:00 +21°C° 0.1 mm 4 mps 758 mmHg 52%
    15:00 +20°C° 0.2 mm 3 mps 758 mmHg 55%
    16:00 +19°C° 0.2 mm 3 mps 758 mmHg 58%
    17:00 +19°C° 0.2 mm 2 mps 758 mmHg 62%
    18:00 +18°C° 0 mm 2 mps 758 mmHg 65%
    19:00 +17°C° 0 mm 2 mps 759 mmHg 69%
    20:00 +16°C° 0 mm 1 mps 759 mmHg 72%
    21:00 +16°C° 0 mm 1 mps 759 mmHg 72%
    22:00 +16°C° 0 mm 2 mps 759 mmHg 73%
    23:00 +15°C° 0 mm 2 mps 760 mmHg 73%

    Day after tomorrow, 22 October, Monday

    Time Temperature Precipitation Wind Pressure Humidity
    00:00 +15°C° 0 mm 2 mps 760 mmHg 73%
    01:00 +14°C° 0 mm 3 mps 760 mmHg 74%
    02:00 +13°C° 0 mm 3 mps 760 mmHg 75%
    03:00 +13°C° 0 mm 4 mps 760 mmHg 76%
    04:00 +12°C° 0 mm 4 mps 760 mmHg 77%
    05:00 +12°C° 0 mm 5 mps 760 mmHg 78%
    06:00 +12°C° 0 mm 5 mps 760 mmHg 76%
    07:00 +12°C° 0 mm 5 mps 760 mmHg 75%
    08:00 +13°C° 0 mm 6 mps 761 mmHg 73%
    09:00 +14°C° 0 mm 5 mps 761 mmHg 67%
    10:00 +15°C° 0 mm 5 mps 761 mmHg 61%
    11:00 +17°C° 0 mm 5 mps 761 mmHg 55%
    12:00 +17°C° 0 mm 5 mps 760 mmHg 52%
    13:00 +19°C° 0 mm 5 mps 760 mmHg 50%
    14:00 +19°C° 0 mm 4 mps 760 mmHg 47%
    15:00 +19°C° 0 mm 4 mps 760 mmHg 50%
    16:00 +18°C° 0 mm 4 mps 759 mmHg 53%
    17:00 +17°C° 0 mm 3 mps 759 mmHg 56%
    18:00 +16°C° 0 mm 3 mps 759 mmHg 59%
    19:00 +14°C° 0 mm 3 mps 760 mmHg 63%
    20:00 +14°C° 0 mm 2 mps 760 mmHg 66%
    21:00 +14°C° 0 mm 2 mps 760 mmHg 66%
    22:00 +14°C° 0 mm 2 mps 760 mmHg 66%
    23:00 +13°C° 0 mm 2 mps 760 mmHg 66%

    23 October, Tuesday

    Time Temperature Precipitation Wind Pressure Humidity
    00:00 +13°C° 0 mm 2 mps 760 mmHg 66%
    01:00 +12°C° 0 mm 2 mps 760 mmHg 65%
    02:00 +11°C° 0 mm 3 mps 760 mmHg 65%
    03:00 +11°C° 0 mm 3 mps 760 mmHg 65%
    04:00 +11°C° 0 mm 3 mps 759 mmHg 66%
    05:00 +10°C° 0 mm 3 mps 759 mmHg 66%
    06:00 +11°C° 0 mm 3 mps 759 mmHg 64%
    07:00 +11°C° 0 mm 3 mps 759 mmHg 61%
    08:00 +12°C° 0 mm 3 mps 760 mmHg 59%
    09:00 +14°C° 0 mm 2 mps 760 mmHg 53%
    10:00 +16°C° 0 mm 2 mps 760 mmHg 47%
    11:00 +17°C° 0 mm 2 mps 760 mmHg 41%
    12:00 +18°C° 0 mm 2 mps 759 mmHg 40%
    13:00 +18°C° 0 mm 2 mps 759 mmHg 38%
    14:00 +19°C° 0 mm 2 mps 758 mmHg 37%
    15:00 +18°C° 0 mm 2 mps 758 mmHg 41%
    16:00 +17°C° 0 mm 2 mps 758 mmHg 45%
    17:00 +16°C° 0 mm 2 mps 757 mmHg 49%
    18:00 +15°C° 0 mm 2 mps 757 mmHg 54%
    19:00 +15°C° 0 mm 2 mps 757 mmHg 59%
    20:00 +14°C° 0 mm 2 mps 757 mmHg 64%
    21:00 +13°C° 0 mm 1 mps 757 mmHg 66%
    22:00 +13°C° 0 mm 1 mps 757 mmHg 68%
    23:00 +13°C° 0 mm 1 mps 757 mmHg 71%

    24 October, Wednesday

    Time Temperature Precipitation Wind Pressure Humidity
    00:00 +13°C° 0 mm 2 mps 756 mmHg 72%
    01:00 +12°C° 0 mm 2 mps 755 mmHg 72%
    02:00 +12°C° 0 mm 2 mps 755 mmHg 73%
    03:00 +12°C° 0 mm 2 mps 754 mmHg 73%
    04:00 +11°C° 0 mm 3 mps 754 mmHg 73%
    05:00 +11°C° 0 mm 3 mps 753 mmHg 73%
    06:00 +11°C° 0 mm 4 mps 753 mmHg 69%
    07:00 +12°C° 0 mm 5 mps 752 mmHg 65%
    08:00 +11°C° 0 mm 6 mps 752 mmHg 61%
    09:00 +14°C° 0 mm 6 mps 751 mmHg 52%
    10:00 +15°C° 0 mm 7 mps 751 mmHg 43%
    11:00 +17°C° 0 mm 8 mps 750 mmHg 34%
    12:00 +17°C° 0 mm 8 mps 749 mmHg 36%
    13:00 +17°C° 0 mm 8 mps 748 mmHg 38%
    14:00 +17°C° 0 mm 8 mps 748 mmHg 40%
    15:00 +17°C° 0 mm 8 mps 747 mmHg 41%
    16:00 +16°C° 0 mm 8 mps 747 mmHg 43%
    17:00 +16°C° 0 mm 7 mps 747 mmHg 45%
    18:00 +16°C° 0 mm 8 mps 747 mmHg 46%
    19:00 +15°C° 0 mm 8 mps 747 mmHg 48%
    20:00 +13°C° 0 mm 9 mps 747 mmHg 50%
    21:00 +12°C° 0 mm 9 mps 747 mmHg 53%
    22:00 +11°C° 0 mm 10 mps 748 mmHg 55%
    23:00 +9°C° 0 mm 10 mps 748 mmHg 57%

    25 October, Thursday

    Time Temperature Precipitation Wind Pressure Humidity
    00:00 +8°C° 0 mm 9 mps 748 mmHg 53%
    01:00 +7°C° 0 mm 8 mps 749 mmHg 49%
    02:00 +7°C° 0 mm 6 mps 749 mmHg 44%
    03:00 +7°C° 0 mm 6 mps 750 mmHg 44%
    04:00 +5°C° 0 mm 6 mps 750 mmHg 44%
    05:00 +4°C° 0 mm 6 mps 751 mmHg 43%
    06:00 +4°C° 0 mm 6 mps 752 mmHg 43%
    07:00 +5°C° 0 mm 6 mps 752 mmHg 42%
    08:00 +5°C° 0 mm 7 mps 753 mmHg 42%
    09:00 +6°C° 0 mm 7 mps 753 mmHg 38%
    10:00 +8°C° 0 mm 7 mps 753 mmHg 35%
    11:00 +9°C° 0 mm 6 mps 754 mmHg 31%
    12:00 +10°C° 0 mm 6 mps 754 mmHg 30%
    13:00 +10°C° 0 mm 6 mps 754 mmHg 29%
    14:00 +11°C° 0 mm 6 mps 754 mmHg 27%
    15:00 +10°C° 0 mm 5 mps 754 mmHg 28%
    16:00 +10°C° 0 mm 5 mps 755 mmHg 29%
    17:00 +10°C° 0 mm 4 mps 755 mmHg 30%
    18:00 +8°C° 0 mm 4 mps 755 mmHg 32%
    19:00 +8°C° 0 mm 4 mps 756 mmHg 33%
    20:00 +7°C° 0 mm 4 mps 756 mmHg 34%
    21:00 +8°C° 0 mm 3 mps 756 mmHg 35%
    22:00 +7°C° 0 mm 3 mps 756 mmHg 37%
    23:00 +7°C° 0 mm 3 mps 756 mmHg 38%
    Show more